Regional Weather Roundup
Issued by NWS

Home | Current Version | Previous Version | Text Only | Print | Product List | Glossary Off
Versions: 1 2 3 4 5 6 7 8 9 10 11 12 13 14 15 16 17 18 19 20 21 22 23 24 25 26 27 28 29 30 31 32 33 34 35 36 37 38 39 40 41 42 43 44 45 46 47 48 49 50

000
ASUS43 KMPX 012101
RWRMN
WEATHER ROUNDUP FOR MINNESOTA
NATIONAL WEATHER SERVICE TWIN CITIES/CHANHASSEN MN
400 PM CDT MON JUN 01 2015


NOTE: "FAIR" INDICATES FEW OR NO CLOUDS BELOW 12,000 FEET WITH NO
SIGNIFICANT WEATHER AND/OR OBSTRUCTIONS TO VISIBILITY. N/A MEANS
CURRENT SKY AND/OR WEATHER CONDITIONS ARE NOT AVAILABLE.

MNZ060>063-068>070-012200-
   Twin Cities Metro

CITY           SKY/WX    TMP DP  RH WIND       PRES   REMARKS
TWIN CITIES    PTSUNNY   68  36  30 SE14      30.17F
ST PAUL        SUNNY     68  42  38 SE10      30.18F
CRYSTAL        MOSUNNY   69  37  30 SE10      30.16F
BLAINE         PTSUNNY   70  34  26 S15       30.17F
LAKEVILLE      SUNNY     66  37  34 SE8G16    30.17S
EDEN PRAIRIE   MOSUNNY   70  36  28 SE9       30.15F
SOUTH ST PAUL  SUNNY     68  38  33 SE7       30.17F
LAKE ELMO      FAIR      66  39  37 S12G17    30.19F
$$
MNZ001>005-007-008-013>017-022>024-027-028-012200-
   Northwest Minnesota

CITY           SKY/WX    TMP DP  RH WIND       PRES   REMARKS
BEMIDJI        PTSUNNY   67  45  44 S14       30.09F
HALLOCK        PTSUNNY   72  43  35 S23G33    29.96F
ROSEAU         MOSUNNY   70  46  43 SE17G23   30.03F
WARROAD        SUNNY     68  48  49 S14       30.05F
THIEF RVR FALL PTSUNNY   68  45  42 SE21G28   30.03F
CROOKSTON      MOSUNNY   70  45  40 S26       30.01F
FOSSTON        PTSUNNY   70  45  40 S16G26    30.05F
DETROIT LAKES  PTSUNNY   68  43  40 S18G26    30.08F
MOORHEAD       CLOUDY    70  45  40 S18G31    30.03F
PARK RAPIDS    CLOUDY    68  42  38 S14G25    30.10F
MAHNOMEN       MOCLDY    67  47  48 SE16G22   30.05F
$$
MNZ006-009>011-018-025>026-012200-
   North Central Minnesota

CITY           SKY/WX    TMP DP  RH WIND       PRES   REMARKS
BAUDETTE       MOSUNNY   70  38  31 S14G24    30.07F
FLAG ISLAND    MOSUNNY   63  48  59 S15       30.04F
INTL FALLS     SUNNY     71  35  26 S13G23    30.09F
WASKISH        MOSUNNY   66  43  42 S9        30.08F
BIG FORK       MOSUNNY   70  37  30 S10       30.12F
LONGVILLE      PTSUNNY   66  37  34 S12G21    30.13F
GRAND RAPIDS   SUNNY     66  37  34 S9        30.14F
CRANE LAKE     SUNNY     68  32  26 SE6       30.15F
ORR            SUNNY     70  32  24 S12G20    30.11F
COOK           SUNNY     66  37  34 SE12G20   30.15F
WALKER         CLOUDY    64  39  39 S12G20    30.12F
$$
MNZ012-019>021-037-012200-
   Northeast Minnesota

CITY           SKY/WX    TMP DP  RH WIND       PRES   REMARKS
DULUTH         SUNNY     59  38  45 E14       30.20F
ELY            SUNNY     66  32  28 S13G18    30.17F
HIBBING        PTSUNNY   68  39  34 S12G21    30.15F
EVELETH        SUNNY     66  37  34 SE9G18    30.17F
DULUTH HARBOR  SUNNY     46  36  66 NE10      30.24F
TWO HARBORS    SUNNY     64  43  45 E12       30.19F
SILVER BAY     SUNNY     61  36  39 NE8       30.20F
GRAND MARAIS     N/A     50  28  42 NE5       30.26F
G MARAIS ARPRT MOSUNNY   55  21  26 SE6       30.26F
$$
MNZ029>031-032-039>041-046>048-054>057-064-012200-
   West Central Minnesota

CITY           SKY/WX    TMP DP  RH WIND       PRES   REMARKS
FERGUS FALLS   PTSUNNY   70  46  43 S17G24    30.06F
WHEATON        PTSUNNY   73  45  35 SE24G32   30.03F
MORRIS         MOSUNNY   75  43  31 S21G28    30.05F
ALEXANDRIA     PTSUNNY   70  44  39 SE17G28   30.11F
ELBOW LAKE     PTSUNNY   69  45  41 SE20G28   30.06F
WADENA         PTSUNNY   66  45  45 SE18      30.10F
GLENWOOD       SUNNY     70  45  40 SE14      30.11F
APPLETON       MOSUNNY   75  41  29 SE17G24   30.05F
BENSON         SUNNY     73  39  29 S13G20    30.07F
ORTONVILLE     MOSUNNY   75  45  33 S17G25    30.03F
MADISON        SUNNY     75  39  27 S17G23    30.04F
WILLMAR        FAIR      73  43  33 SE17G26   30.12F
$$
MNZ033>034-036-042>043-049>051-058-059-012200-
   Central Minnesota

CITY           SKY/WX    TMP DP  RH WIND       PRES   REMARKS
ST CLOUD       MOSUNNY   66  35  31 SE13G18   30.15F
SAUK CENTRE    FAIR      69  44  40 SE15G22   30.12F
PAYNESVILLE    MOSUNNY   66  43  43 E12G18    30.13F
AITKIN         SUNNY     70  36  28 S12G18    30.14F
PINE RIVER     MOSUNNY   66  41  39 S14G21    30.16F
BRAINERD       CLOUDY    67  36  31 SE8       30.15F
STAPLES        PTSUNNY   68  39  34 SE12G25   30.12F
LONG PRAIRIE   FAIR      68  45  42 SE16G22   30.13F
LITTLE FALLS   PTSUNNY   68  32  26 SE13      30.14F
LITCHFIELD     MOSUNNY   70  45  40 SE9G16    30.14F
BUFFALO        MOSUNNY   67  34  29 E8        30.17F
MAPLE LAKE     MOSUNNY   69  42  37 SE3       30.17F
$$
MNZ037-044-045-052-053-012200-
   East Central Minnesota

CITY           SKY/WX    TMP DP  RH WIND       PRES   REMARKS
PRINCETON      MOSUNNY   70  36  28 SE10G16   30.16F
MORA           MOSUNNY   64  34  32 S8        30.19F
CAMBRIDGE      SUNNY     70  46  43 SE7       30.15F
RUSH CITY      SUNNY     67  37  32 S10       30.18F
MOOSE LAKE     MOSUNNY   68  36  30 S7        30.15F
HINCKLEY       MOCLDY    68  36  30 S8        30.17F
CLOQUET        SUNNY     61  37  41 E12       30.19F
MCGREGOR       MOSUNNY   68  36  30 SE12G22   30.16F
$$
MNZ071>073-080-081-089-090-097-098-012200-
   Southwest Minnesota

CITY           SKY/WX    TMP DP  RH WIND       PRES   REMARKS
MONTEVIDEO     SUNNY     75  45  33 S16G22    30.07F
GRANITE FALLS  SUNNY     75  44  32 SE17G26   30.09F
CANBY          PTSUNNY   75  44  33 S15G22    30.05F
MARSHALL       MOSUNNY   75  43  31 S20       30.06F
REDWOOD FALLS  SUNNY     73  43  33 SE18      30.10F
OLIVIA         SUNNY     70  43  37 SE17      30.11F
PIPESTONE      MOSUNNY   73  45  35 S20G25    30.07F
WINDOM         SUNNY     73  43  33 SE10G16   30.11F
WORTHINGTON    PTSUNNY   73  45  35 SE14G22   30.09F
JACKSON        SUNNY     73  45  35 SE15      30.12F
TRACY          MOSUNNY   75  46  35 S13G25    30.08F
SLAYTON        PTSUNNY   75  41  28 SE18G24   30.09F
$$
MNZ065>067-074>077-082>085-091>093-012200-
   South Central Minnesota

CITY           SKY/WX    TMP DP  RH WIND       PRES   REMARKS
MANKATO        MOSUNNY   70  43  37 S10G21    30.14F
NEW ULM        MOSUNNY   72  43  35 SE9       30.13F
ST JAMES       SUNNY     73  43  33 E14G21    30.13F
FAIRMONT       SUNNY     72  39  30 S13       30.13S
GLENCOE        MOSUNNY   72  44  36 SE12      30.15S
FARIBAULT      SUNNY     70  39  32 E8        30.17S
OWATONNA       SUNNY     70  34  26 SE10G16   30.16F
WASECA         MOSUNNY   68  39  34 SE12      30.17F
ALBERT LEA     SUNNY     70  34  26 S9        30.16F
$$
MNZ078>079-086>088-094>096-012200-
   Southeast Minnesota

CITY           SKY/WX    TMP DP  RH WIND       PRES   REMARKS
ROCHESTER      SUNNY     67  44  43 E12       30.19F
RED WING       SUNNY     70  36  28 SE12      30.17F
STANTON        SUNNY     70  38  31 SE8       30.16F
DODGE CENTER   MOSUNNY   68  36  30 SE13G23   30.18F
WINONA         SUNNY     70  43  37 E12       30.19F
AUSTIN         SUNNY     66  39  37 SE6       30.17F
PRESTON        SUNNY     65  39  38 SE8       30.20F
$$
ABBREVIATIONS USED IN REMARKS
   TC - TEMPERATURES IN CELSIUS
  WCI - WIND CHILL INDEX
   HX - HEAT INDEX
  VSB - VISIBILITY
$$


USA.gov is the U.S. government's official web portal to all federal, state and local government web resources and services.